Regional Weather Roundup
Issued by NWS State College, PA

Home | Current Version | Previous Version | Graphics & Text | Print | Product List | Glossary On
Versions: 1 2 3 4 5 6 7 8 9 10 11 12 13 14 15 16 17 18 19 20 21 22 23 24 25 26 27 28 29 30 31 32 33 34 35 36 37 38 39 40 41 42 43 44 45 46 47 48 49 50
000
ASUS41 KCTP 091710
RWRCTP

REGIONAL WEATHER ROUNDUP
NATIONAL WEATHER SERVICE STATE COLLEGE PA
100 PM EDT WED JUL 09 2014

Note: "fair" indicates few or no clouds below 12,000 feet with no
significant weather and/or obstructions to visibility.

* = STATION THAT DOES NOT REPORT PRECIPITATION /E.G. RAIN...SNOW...ETC/
    THUNDER OR FOG.

PAZ002>004-007>009-013>016-020>023-029>032-091800-
WESTERN PENNSYLVANIA

CITY           SKY/WX    TMP DP  RH WIND       PRES   REMARKS
ERIE           MOSUNNY   72  61  68 NW9       29.91R
MEADVILLE      PTSUNNY   69  62  78 W7        29.91R
FRANKLIN*      MOSUNNY   75  57  53 SW16G23   29.92S
NEW CASTLE     NOT AVBL
BEAVER COUNTY  CLOUDY    77  63  61 W9        29.93S
BUTLER*        MOSUNNY   75  64  69 W9        29.94S
PITTSBURGH INT MOSUNNY   78  57  48 SW10G22   29.93R
PITTSBURGH     MOSUNNY   82  57  42 W15       29.92F
INDIANA*       MOSUNNY   79  61  53 SW14G21   29.96F
LATROBE        PTSUNNY   79  64  61 SW12G23   29.95R
WASHINGTON CO* MOSUNNY   79  63  57 SW6       29.95S
$$

PAZ004>006-010>012-017>019-024>028-033>037-041-042-045-046-049>053-091800-
CENTRAL PENNSYLVANIA

CITY           SKY/WX    TMP DP  RH WIND       PRES   REMARKS
BRADFORD       PTSUNNY   72  57  59 W8        29.91S
DUBOIS         MOSUNNY   78  61  55 SW14G25   29.90F
CLEARFIELD     SUNNY     78  59  51 SW13G26   29.90F
JOHNSTOWN      SUNNY     75  56  51 W14G25    29.97S
ALTOONA        SUNNY     78  62  57 W13       29.94F
STATE COLLEGE  PTSUNNY   77  63  61 SW6       29.91F
WILLIAMSPORT   PTSUNNY   81  63  54 SW7       29.86F
SELINSGROVE    MOSUNNY   80  70  71 W5        29.88F
FT INDIANTOWN  MOSUNNY   85  66  53 S10       29.90F
CAPITAL CITY   MOSUNNY   86  65  49 W10       29.89F
HARRISBURG     MOSUNNY   87  64  46 SW10G24   29.89S
YORK           MOSUNNY   85  64  49 SW10G17   29.91F
$$

PAZ038>040-043-044-047-048-054-055-060>062-067>071-091800-
EASTERN PENNSYLVANIA

CITY           SKY/WX    TMP DP  RH WIND       PRES   REMARKS
SCRANTON       MOSUNNY   81  63  54 W13       29.89F
MOUNT POCONO   MOSUNNY   75  62  64 SW7G20    29.96S
ALLENTOWN      PTSUNNY   84  65  52 SW13G18   29.91S
QUAKERTOWN*    MOSUNNY   82  66  57 SW7       29.93S
READING        PTSUNNY   84  66  54 S10       29.89F
LANCASTER      PTSUNNY   84  66  54 SW10      29.90F
COATESVILLE    PTSUNNY   82  66  57 S7        29.95S
POTTSTOWN      MOSUNNY   84  65  52 SW8       29.93S
BLUE BELL      MOSUNNY   88  64  45 SW9       29.91S
DOYLESTOWN     MOSUNNY   83  64  52 SW6       29.91F
WILLOW GROVE   NOT AVBL
NORTH PHILA    MOSUNNY   89  61  38 SW13      29.92S
PHILADELPHIA   PTSUNNY   86  65  49 SW15      29.92S
$$


USA.gov is the U.S. government's official web portal to all federal, state and local government web resources and services.